Regional Weather Roundup
Issued by NWS Jackson, KY

Home | Current Version | Previous Version | Graphics & Text | Print | Product List | Glossary On
Versions: 1 2 3 4 5 6 7 8 9 10 11 12 13 14 15 16 17 18 19 20 21 22 23 24 25 26 27 28 29 30 31 32 33 34 35 36 37 38 39 40 41 42 43 44 45 46 47 48 49 50
000
ASUS43 KJKL 061810
RWRJKL

EAST KENTUCKY HOURLY WEATHER ROUNDUP
NATIONAL WEATHER SERVICE JACKSON KY
200 PM EDT WED MAY 06 2015

NOTE: "FAIR" INDICATES FEW OR NO CLOUDS BELOW 12,000 FEET WITH
NO SIGNIFICANT WEATHER AND/OR OBSTRUCTIONS TO VISIBILITY.

* THESE REPORTS ARE NOT UNDER NWS QUALITY CONTROL AND MAY NOT
  REPORT WEATHER SUCH AS PRECIPITATION AND FOG.

KYZ079-080-083-085-087-088-110-112-115-119-120-061900
...EASTERN KENTUCKY...

CITY           SKY/WX    TMP DP  RH WIND       PRES   REMARKS
JACKSON        SUNNY     82  54  37 VRB5      30.20F
6HR MIN TEMP:  59; 6HR MAX TEMP:  83;

LONDON         PTSUNNY   81  53  37 VRB5      30.19F
6HR MIN TEMP:  59; 6HR MAX TEMP:  83;

SOMERSET*      MOSUNNY   81  55  41 E5        30.20F
MONTICELLO*    MOSUNNY   83  59  44 VRB5      30.21F
6HR MIN TEMP:  60; 6HR MAX TEMP:  85;

MIDDLESBORO*   SUNNY     82  57  41 NE6       30.19F
6HR MIN TEMP:  56; 6HR MAX TEMP:  82;

HARLAN APT*    MOCLDY    77  55  47 CALM      30.20F
HAZARD APT*    CLEAR     82  55  39 E3        30.20F
BLACK MTN*       N/A     70  52  52 NE2         N/A
PIKEVILLE APT* SUNNY     79  55  44 N8        30.21F
BIG SANDY*     CLEAR     82  56  41 CALM      30.21F
6HR MIN TEMP:  60; 6HR MAX TEMP:  82;

MOREHEAD APT*  MOCLDY    84  52  32 VRB5      30.21F
$$

KYZ035-036-041-042-044-050-067-078-099-061900
...CENTRAL KENTUCKY...

CITY           SKY/WX    TMP DP  RH WIND       PRES   REMARKS
MT STERLING*   SUNNY     82  54  36 CALM      30.21F
FLEMING/MASON* SUNNY     82  55  39 CALM      30.20F
DANVILLE*      PTSUNNY   79  59  50 E3        30.21F
RICHMOND*      MOSUNNY   81  54  39 E7        30.20F
LEXINGTON      MOSUNNY   84  56  38 NE5       30.20F
6HR MIN TEMP:  60; 6HR MAX TEMP:  84;

FRANKFORT      MOSUNNY   83  54  36 E5        30.18F
6HR MIN TEMP:  59; 6HR MAX TEMP:  84;

$$

KYZ091>093-OHZ055-061-077-WVZ005-015-034-035-042-061900
...SOUTHERN OHIO/WEST VIRGINIA...

CITY           SKY/WX    TMP DP  RH WIND       PRES   REMARKS
COVINGTON      PTSUNNY   84  55  36 W9        30.19F
COLUMBUS       MOSUNNY   82  54  37 SW6       30.18F
DAYTON         MOSUNNY   84  52  33 CALM      30.19F
WILMINGTON     PTSUNNY   83  52  34 NW5       30.19F
HUNTINGTON     MOSUNNY   82  52  35 CALM      30.18F
CHARLESTON     MOSUNNY   86  52  30 N6        30.18F
PINEVILLE*     PTSUNNY   82  53  37 MISG      30.25F
BECKLEY        PTSUNNY   76  47  35 E6        30.25F
BLUEFIELD      MOSUNNY   80  50  34 E8        30.26F
$$

VAZ002-007-008-TNZ017-027-036-066-071-061900
...SOUTHWEST VIRGINIA/EAST TENNESSEE...

CITY           SKY/WX    TMP DP  RH WIND       PRES   REMARKS
WISE*          CLOUDY    73  46  38 NE3       30.27F
JONESVILLE*    PTCLDY    82  54  36 N5        30.21F
ABINGDON*      PTSUNNY   80  53  39 E7        30.22F
BRISTOL        MOSUNNY   84  54  35 NE6       30.19F
KNOXVILLE      MOSUNNY   81  54  39 CALM      30.17F
OAK RIDGE      SUNNY     83  56  39 VRB3      30.19F
CROSSVILLE     MOSUNNY   79  52  38 VRB3      30.22F
NASHVILLE      PTSUNNY   82  55  39 VRB3      30.18F
$$

...KEY TO REMARKS...
VSB - VISIBILITY IN MILES
WCI - WIND CHILL INDEX
HX  - HEAT INDEX

$$



USA.gov is the U.S. government's official web portal to all federal, state and local government web resources and services.